Powrót do katalogu

QIANFAN-88

AktywnyŁącznośćPO
NORAD 63174·PAYLOAD·🇨🇳 China

Wystrzelony Mar 11, 2025 z Wenchang Space Launch Site

Loading…

Następne Przeloty (najbliższe 24 godziny)

TLE

ŚwieżeSource: Space-Track

Epoka: Sep 14, 2026, 13:49 UTC

1 63174U 25046R   26257.57620676  .00000078  00000-0  10248-3 0  9992
2 63174  88.9652 291.2156 0013842  63.8230 296.4343 13.51029425 84754

Śledź QIANFAN-88 w czasie rzeczywistym z AllMySat

Download on the App Store